Overview Statistics Trail Chart Weather Telemetry Raw packets
 

This is the latest recevied weather packets stored in our database for station/object VY2CRA-4. If no packets are shown the sender has not sent any weather packets the latest 10 day(s).

<< 1 2 3 4 5 6 >>
Time Temp. Humidity Pressure Rain* Wind** Luminosity Snow
1788571863 21.11° C 55% 998.4 hPa 0 mm - - -
1788570663 21.67° C 55% 998.9 hPa 0 mm - - -
1788569462 21.67° C 55% 998.6 hPa 0 mm - - -
1788568261 21.67° C 54% 998.9 hPa 0 mm - - -
1788567060 22.22° C 54% 999.1 hPa 0 mm - - -
1788562256 22.78° C 51% 999.4 hPa 0 mm - - -
1788561055 22.78° C 51% 999.5 hPa 0 mm - - -
1788559854 23.33° C 50% 999.4 hPa 0 mm - - -
1788557452 23.89° C 49% 999.8 hPa 0 mm - - -
1788556251 23.89° C 48% 999.9 hPa 0 mm - - -
1788553849 24.44° C 47% 1000.6 hPa 0 mm - - -
1788552648 25° C 46% 1000.9 hPa 0 mm - - -
1788551448 25.56° C 46% 1001.2 hPa 0 mm - - -
1788550247 23.33° C 52% 1001.4 hPa 0 mm - - -
1788549046 23.33° C 51% 1001.5 hPa 0 mm - - -
1788547845 23.33° C 51% 1001.7 hPa 0 mm - - -
1788545443 23.33° C 51% 1002.3 hPa 0 mm - - -
1788544242 23.33° C 51% 1002.7 hPa 0 mm - - -
1788543041 23.33° C 51% 1002.5 hPa 0 mm - - -
1788539438 22.78° C 50% 1003.4 hPa 0 mm - - -
1788538237 22.78° C 50% 1003.8 hPa 0 mm - - -
1788537036 22.78° C 50% 1004.4 hPa 0 mm - - -
1788535835 22.78° C 49% 1004.6 hPa 0 mm - - -
1788534635 22.78° C 48% 1005.3 hPa 0 mm - - -
1788533435 22.78° C 47% 1005.2 hPa 0 mm - - -

* Rain since midnight (hover to see other rain measurements)
** Current wind speed in m/s (hover to see current wind gust speed)